Regional Weather Roundup
Issued by NWS Raleigh/Durham, NC

Home | Current Version | Previous Version | Text Only | Print | Product List | Glossary On
Versions: 1 2 3 4 5 6 7 8 9 10 11 12 13 14 15 16 17 18 19 20 21 22 23 24 25 26 27 28 29 30 31 32 33 34 35 36 37 38 39 40 41 42 43 44 45 46 47 48 49 50
000
ASUS42 KRAH 060410
RWRRAH
NORTH CAROLINA WEATHER ROUNDUP
NATIONAL WEATHER SERVICE RALEIGH NC
1200 AM EDT MON JUL 06 2015

NOTE: "FAIR" INDICATES FEW OR NO CLOUDS BELOW 12,000 FEET WITH NO
SIGNIFICANT WEATHER AND/OR OBSTRUCTIONS TO VISIBILITY.

NCZ001-053-055-056-065-067-060500-
WESTERN NORTH CAROLINA

CITY           SKY/WX    TMP DP  RH WIND       PRES   REMARKS
ASHEVILLE      MOCLDY    67  64  90 CALM      30.16S
JEFFERSON      CLOUDY    65  65 100 CALM      30.17F
HICKORY        CLOUDY    73  65  75 SW6       30.08F
RUTHERFORDTON  NOT AVBL
MOUNT AIRY     LGT RAIN  73  70  91 SE5       30.11F
$$

NCZ021-022-025-041-071-084-088-060500-
CENTRAL NORTH CAROLINA

CITY           SKY/WX    TMP DP  RH WIND       PRES   REMARKS
CHARLOTTE      PTCLDY    72  68  87 S7        30.10S
GREENSBORO     MOCLDY    72  70  93 S7        30.09S
WINSTON-SALEM  PTCLDY    72  69  90 S3        30.10S
RALEIGH-DURHAM MOCLDY    70  68  93 CALM      30.10F
FORT BRAGG     PTCLDY    78  69  73 S6        30.10R
FAYETTEVILLE   MOCLDY    77  69  76 S7        30.10S
$$

NCZ011-015-027-028-043-044-047-080-103-060500-
NORTHEASTERN NORTH CAROLINA

CITY           SKY/WX    TMP DP  RH WIND       PRES   REMARKS
ROANOKE RAPIDS LGT RAIN  70  68  94 CALM      30.13F
ROCKY MT-WILSO CLOUDY    72  70  93 NE5       30.12F
GREENVILLE     CLOUDY    79  75  89 SW8       30.12S
WASHINGTON     PTCLDY    77  73  87 S3        30.11F
ELIZABETH CITY NOT AVBL
MANTEO         CLEAR     79  73  83 SW14      30.12F
CAPE HATTERAS  CLEAR     77  75  93 SW9       30.14F
$$

NCZ078-087-090-091-093-098-101-060500-
SOUTHEASTERN NORTH CAROLINA

CITY           SKY/WX    TMP DP  RH WIND       PRES   REMARKS
LUMBERTON      MOCLDY    76  70  82 CALM      30.10S
GOLDSBORO      PTCLDY    79  73  82 S3        30.09F
KINSTON        PTCLDY    78  71  79 SW6       30.12S
KENANSVILLE    PTCLDY    75  70  84 CALM      30.13S
NEW BERN       PTCLDY    78  74  87 S6        30.13F
CHERRY POINT   CLEAR     78  74  87 S6        30.13F
BEAUFORT       PTCLDY    79  76  90 SW10      30.13F
JACKSONVILLE   PTCLDY    77  72  84 CALM      30.11F
WILMINGTON     CLEAR     79  74  84 S10       30.11F
$$




USA.gov is the U.S. government's official web portal to all federal, state and local government web resources and services.